Location: Newark
(36.0797°N, 3.9744°E)
Time: 17:09:40
(UTC+00:00)

Vanguard 2 Rocket - Pass Details

Date: 09 December 2019
Orbit: 554 x 3326 km, 32.9° (Epoch: 18 January)

Event Time Altitude Azimuth Distance (km) Brightness Sun altitude
Rises 18:59:15 0° 254° (WSW) 6,251 12.4 -29.5°
Reaches altitude 10° 19:04:03 10° 252° (WSW) 4,813 11.4 -30.4°
Maximum altitude 19:16:13 68° 174° (S) 1,508 7.8 -32.9°
Enters shadow 19:16:48 66° 150° (SSE) 1,482 7.7 -33.0°
Drops below altitude 10° 19:22:54 10° 92° (E) 2,750 - -34.2°
Sets 19:24:58 0° 89° (E) 3,471 - -34.6°
